Simultaneous Nadir Overpasses (SNOs) Predictions

Prediction of SNOs between GOES-15 and TERRA Satellite Orbit:

Table of predicted SNOs for the next 14.0 days since TLE Epoch: 7/16/2022
Index Date Time (GOES-15) GOES-15 Lat,Lon TERRA Lat,Lon Distance(km) Time Diff (sec)
1 07/17/2022 18:41:42 -0.07,-128.37 -0.48,-126.40 224.35 80
2 07/18/2022 07:05:43 0.03,-128.33 -0.67,-131.58 369.84 80
3 07/20/2022 06:53:26 0.04,-128.30 -0.05,-128.61 36.41 80
4 07/22/2022 06:38:29 0.05,-128.26 0.58,-125.65 296.80 80
5 07/22/2022 19:02:23 -0.00,-128.29 0.52,-130.80 285.81 80
6 07/24/2022 18:47:26 -0.01,-128.25 -0.12,-127.84 46.83 80
7 07/26/2022 18:35:08 -0.02,-128.20 -0.71,-124.87 378.87 80
8 07/27/2022 06:59:10 -0.02,-128.16 -0.43,-130.05 215.04 80
9 07/29/2022 06:44:13 -0.01,-128.11 0.24,-127.09 116.42 80
10 07/29/2022 19:08:06 0.05,-128.13 0.91,-132.24 467.34 80
